Torna al catalogo

FREGAT DEB

AttivoUNKNOWN
NORAD 45833·DEBRIS·🇷🇺 Russia

Lanciato Jul 18, 2011 da Baikonur Cosmodrome

Loading…

Prossimi Passaggi (prossime 24 ore)

TLE

AggiornatoSource: Space-Track

Epoca: Sep 14, 2026, 10:20 UTC

1 45833U 11037BT  26257.43101031  .00001228  00000-0  37024-2 0  9991
2 45833  51.6005  37.7924 2008378 271.3230  65.9793 10.24273171234624

Traccia FREGAT DEB in tempo reale con AllMySat

Download on the App Store